View from above orbital plane
|
View from above satellite
|
Ground track
|
The orbit data is extracted from the following two-line orbital elements,
1 36089U 09061B 21015.53288346 -.00000007 00000-0 98602-5 0 9998
2 36089 98.1832 348.6610 0081572 342.2506 125.1460 14.49846437591185
Epoch (UTC): | 15 January 2021 12:47:21 |
Eccentricity: | 0.0081572 |
inclination: | 98.1832° |
perigee height: | 668 km |
apogee height: | 784 km |
right ascension of ascending node: | 348.6610° |
argument of perigee: | 342.2506° |
revolutions per day: | 14.49846437 |
mean anomaly at epoch: | 125.1460° |
orbit number at epoch: | 59118 |
The dashed part of the orbit path shows where the satellite is in the earth's shadow,
|
|